Location: Niles Junction
(37.5763°N, 121.9714°W)
Time: 12:10:05
(UTC+00:00)

SAR-Lupe-4 - Pass Details

Date: 29 October 2020
Orbit: 481 x 484 km, 98.2° (Epoch: 25 November)

Event Time Altitude Azimuth Distance (km) Brightness Sun altitude
Rises 13:30:09 0° 180° (S) 2,532 7.3 -12.5°
Reaches altitude 10° 13:32:16 10° 186° (S) 1,656 6.3 -12.1°
Maximum altitude 13:35:40 44° 260° (W) 681 3.9 -11.4°
Drops below altitude 10° 13:39:07 10° 333° (NNW) 1,667 5.9 -10.8°
Sets 13:41:15 0° 340° (NNW) 2,551 6.9 -10.3°
